Starlink 3858

operational
NORAD ID: 52553 Int'l Des: 2022-051 Owner: SPXS Country: US Constellation: starlink
LEOCIRCULAR

Über Starlink 3858

Beschreibung wird geladen...

Live-Position

3D-Globus wird geladen...

Nächste Überflüge

Höhenverlauf

Altitude vs Time

uPlot chart will show altitude changes over time

Zweizeiliger Elementsatz

1 52553U 22051W 25302.87854716 -.00000195 00000-0 58246-5 0 9994
2 52553 53.2185 356.0144 0001555 85.0801 275.0368 15.08844885191707
Epoch: 29. Okt. 2025 • Age: 8 hours

Aktueller Status

Höhe 558.9 km
Geschwindigkeit 7.58 km/s
Subsatellitenpunkt -52.23°S, 171.98°E
Startdatum 13. Mai 2022
Alter 3.4 years
Typ internet

Technische Details

Klassifizierung Payload
Masse 297.00 kg
Trockenmasse 275.00 kg
Gesamtmasse 297.00 kg
Länge 0.20 m
Durchmesser 2.80 m
Spannweite 9.00 m
Form Box + pan
Hersteller SPXS
Bus-Typ Starlink
Phasenstatus In Orbit
Besitzer/Staat SPXS/US

Große Konstellationen

Loading constellations...